Time,TemperatureF,DewpointF,PressureIn,WindDirection,WindDirectionDegrees,WindSpeedMPH,WindSpeedGustMPH,Humidity,HourlyPrecipIn,Conditions,Clouds,dailyrainin,SoftwareType,DateUTC
2013-08-27 00:18:00,71.0,67.0,30.03,ENE,69,0.0,0.0,86,0.01,,,0.45,,2013-08-27 04:18:00,
2013-08-27 00:54:00,71.0,67.0,30.03,ENE,69,0.0,0.0,86,0.00,,,0.44,,2013-08-27 04:54:00,
2013-08-27 01:23:00,71.0,67.0,30.02,ENE,69,0.0,0.0,86,0.00,,,0.44,,2013-08-27 05:23:00,
2013-08-27 01:52:00,71.0,67.0,30.01,ENE,69,0.0,0.0,86,0.00,,,0.44,,2013-08-27 05:52:00,
2013-08-27 02:12:00,71.0,67.0,30.01,ENE,69,0.0,0.0,86,0.00,,,0.44,,2013-08-27 06:12:00,
2013-08-27 02:22:00,71.0,67.0,30.01,ENE,69,0.0,0.0,86,0.00,,,0.44,,2013-08-27 06:22:00,
2013-08-27 02:32:00,71.0,67.0,30.01,ENE,69,0.0,0.0,86,0.00,,,0.44,,2013-08-27 06:32:00,
2013-08-27 02:52:00,70.0,66.0,29.99,ENE,69,0.0,0.0,86,0.00,,,0.44,,2013-08-27 06:52:00,
2013-08-27 03:12:00,70.0,66.0,29.99,ENE,69,0.0,0.0,86,0.00,,,0.44,,2013-08-27 07:12:00,
2013-08-27 03:22:00,70.0,66.0,29.99,ENE,69,0.0,0.0,86,0.00,,,0.44,,2013-08-27 07:22:00,
2013-08-27 03:52:00,70.0,66.0,29.98,ENE,69,0.0,0.0,86,0.00,,,0.44,,2013-08-27 07:52:00,
2013-08-27 04:02:00,70.0,66.0,29.98,ENE,69,0.0,0.0,86,0.00,,,0.44,,2013-08-27 08:02:00,
2013-08-27 04:22:00,69.0,65.0,29.98,ENE,69,0.0,0.0,87,0.00,,,0.44,,2013-08-27 08:22:00,
2013-08-27 04:52:00,70.0,66.0,29.98,ENE,69,0.0,0.0,87,0.00,,,0.44,,2013-08-27 08:52:00,
2013-08-27 05:21:00,71.0,67.0,29.97,ENE,69,0.0,0.0,87,0.00,,,0.44,,2013-08-27 09:21:00,
2013-08-27 05:54:00,71.0,67.0,29.98,ENE,69,0.0,0.0,87,0.00,,,0.44,,2013-08-27 09:54:00,
2013-08-27 06:14:00,71.0,67.0,29.98,ENE,69,0.0,0.0,87,0.00,,,0.44,,2013-08-27 10:14:00,
2013-08-27 06:25:00,71.0,67.0,29.98,ENE,69,0.0,0.0,87,0.00,,,0.44,,2013-08-27 10:25:00,
2013-08-27 06:53:00,70.0,66.0,29.98,ENE,69,0.0,0.0,87,0.00,,,0.44,,2013-08-27 10:53:00,
2013-08-27 07:22:00,71.0,67.0,29.98,ENE,69,0.0,0.0,87,0.00,,,0.44,,2013-08-27 11:22:00,
2013-08-27 07:52:00,71.0,67.0,29.98,ENE,70,0.0,0.0,87,0.00,,,0.44,,2013-08-27 11:52:00,
2013-08-27 08:12:00,71.0,67.0,29.99,ENE,70,0.0,0.0,88,0.00,,,0.44,,2013-08-27 12:12:00,
2013-08-27 08:21:00,71.0,67.0,29.99,ENE,70,0.0,0.0,88,0.00,,,0.44,,2013-08-27 12:21:00,
2013-08-27 08:52:00,75.0,71.0,30.01,ENE,70,0.0,1.0,88,0.00,,,0.44,,2013-08-27 12:52:00,
2013-08-27 09:11:00,75.0,71.0,30.01,ENE,70,0.0,1.0,88,0.00,,,0.44,,2013-08-27 13:11:00,
2013-08-27 09:22:00,75.0,71.0,30.01,ENE,70,0.0,1.0,88,0.00,,,0.44,,2013-08-27 13:22:00,
2013-08-27 09:52:00,79.0,74.0,30.01,ENE,69,0.0,3.0,86,0.00,,,0.44,,2013-08-27 13:52:00,
2013-08-27 10:22:00,81.0,76.0,30.01,ENE,64,0.0,3.0,84,0.00,,,0.44,,2013-08-27 14:22:00,
2013-08-27 10:32:00,81.0,76.0,30.01,ENE,64,0.0,3.0,84,0.00,,,0.44,,2013-08-27 14:32:00,
2013-08-27 10:53:00,82.0,76.0,30.03,NNE,22,3.0,3.0,81,0.00,,,0.44,,2013-08-27 14:53:00,
2013-08-27 11:22:00,84.0,76.0,30.03,ESE,108,1.0,6.0,78,0.00,,,0.44,,2013-08-27 15:22:00,
2013-08-27 11:35:00,84.0,76.0,30.03,ESE,108,1.0,6.0,78,0.00,,,0.44,,2013-08-27 15:35:00,
2013-08-27 11:58:00,86.0,77.0,30.03,SSE,157,0.0,4.0,74,0.00,,,0.44,,2013-08-27 15:58:00,
2013-08-27 12:28:00,86.0,75.0,30.02,North,355,1.0,4.0,70,0.00,,,0.44,,2013-08-27 16:28:00,
2013-08-27 12:35:00,86.0,75.0,30.02,North,355,1.0,4.0,70,0.00,,,0.44,,2013-08-27 16:35:00,
2013-08-27 12:55:00,86.0,76.0,30.01,NE,53,3.0,5.0,72,0.00,,,0.44,,2013-08-27 16:55:00,
2013-08-27 13:04:00,86.0,76.0,30.01,NE,53,3.0,5.0,72,0.00,,,0.44,,2013-08-27 17:04:00,
2013-08-27 13:23:00,88.0,76.0,29.99,SE,142,1.0,4.0,68,0.00,,,0.44,,2013-08-27 17:23:00,
2013-08-27 13:36:00,88.0,76.0,29.99,SE,142,1.0,4.0,68,0.00,,,0.44,,2013-08-27 17:36:00,
2013-08-27 13:52:00,88.0,74.0,29.98,ESE,123,0.0,4.0,64,0.00,,,0.44,,2013-08-27 17:52:00,
2013-08-27 14:12:00,88.0,74.0,29.98,East,100,0.0,4.0,64,0.00,,,0.44,,2013-08-27 18:12:00,
2013-08-27 14:22:00,88.0,74.0,29.98,East,100,0.0,4.0,64,0.00,,,0.44,,2013-08-27 18:22:00,
2013-08-27 14:53:00,89.0,75.0,29.97,NE,34,1.0,3.0,63,0.00,,,0.44,,2013-08-27 18:53:00,
2013-08-27 15:01:00,89.0,75.0,29.97,NE,34,1.0,3.0,63,0.00,,,0.44,,2013-08-27 19:01:00,
2013-08-27 15:22:00,87.0,75.0,29.98,East,81,0.0,4.0,67,0.00,,,0.44,,2013-08-27 19:22:00,
2013-08-27 15:32:00,87.0,75.0,29.98,East,81,0.0,4.0,67,0.00,,,0.44,,2013-08-27 19:32:00,
2013-08-27 15:52:00,77.0,72.0,29.97,ENE,67,0.0,6.0,86,0.06,,,0.50,,2013-08-27 19:52:00,